Location: Crayja
(6.2254°N, 10.6273°W)
Time: 14:23:08
(UTC+00:00)

STARLINK-25 - Pass Details

Date: 17 February 2020
Orbit: 528 x 531 km, 53.0° (Epoch: 30 March)

Event Time Altitude Azimuth Distance (km) Brightness Sun altitude
Exits shadow 05:26:09 62° 173° (S) 595 3.7 -23.4°
Drops below altitude 10° 05:29:36 10° 150° (SSE) 1,772 6.7 -22.5°
Sets 05:31:49 0° 149° (SSE) 2,662 7.7 -22.0°
